Location: Unspecified
(0.0000°N, 0.0000°E)
Time: 12:28:47
(UTC+00:00)

Altair - Pass Details

Date: 28 November 2019
Orbit: 1502 x 1682 km, 47.2° (Epoch: 10 December)

Event Time Altitude Azimuth Distance (km) Brightness Sun altitude
Rises 08:41:06 0° 328° (NNW) 4,681 9.6 39.7°
Reaches altitude 10° 08:44:10 10° 332° (NNW) 3,720 9.2 40.4°
Maximum altitude 08:53:28 62° 51° (NE) 1,757 8.7 42.4°
Drops below altitude 10° 09:03:09 10° 129° (SE) 3,870 10.7 44.5°
Sets 09:06:23 0° 132° (SE) 4,879 10.9 45.2°
